Starlink 3866

operational
NORAD ID: 52500 Int'l Des: 2022-049 Owner: SPXS Country: US Constellation: starlink
LEOCIRCULAR

About Starlink 3866

Description loading...

Live Position

Loading 3D Globe...

Upcoming Passes

Altitude History

Altitude vs Time

uPlot chart will show altitude changes over time

Two-Line Element Set

1 52500U 22049BB 25278.52156098 .00001501 00000-0 11237-3 0 9993
2 52500 53.2174 15.6998 0001399 91.1241 268.9912 15.08843179189106
Epoch: Oct 5, 2025 • Age: 19 hours

Current Status

Altitude 539.7 km
Velocity 7.60 km/s
Sub-Earth Point 14.68°N, 107.01°W
Launch Date May 6, 2022
Age 3.4 years
Type internet

Technical Details

Classification Payload
Mass 297.00 kg
Dry Mass 220.00 kg
Total Mass 297.00 kg
Length 0.20 m
Diameter 2.80 m
Span 9.00 m
Shape Box + pan
Manufacturer SPXS
Bus Type Starlink
Phase Status In Orbit
Owner/State SPXS/US

Large Constellations

Loading constellations...